{"data":{"norad_id":55831,"epoch":"2026-09-19T22:34:45.711840Z","epoch_age_seconds":66506,"freshness":"FRESH","line1":"1 55831U 23029AM  26262.94080685  .00000116  00000+0  25422-3 0  9991","line2":"2 55831  87.9144 255.5316 0001947  95.0459 265.0897 13.20770670173659","mean_motion":13.2077067,"eccentricity":0.0001947,"inclination_deg":87.9144,"raan_deg":255.5316,"arg_perigee_deg":95.0459,"mean_anomaly_deg":265.0897,"bstar":0.00025422,"rev_number":17365,"period_min":109.02725451951,"perigee_km":1180.3058186624,"apogee_km":1183.2496494599,"semimajor_km":7559.9147340611,"source":"CELESTRAK","updated_at":"2026-09-20T09:00:44.784969Z"}}